Location: Crescent
(42.8242°N, 73.7329°W)
Time: 03:34:28
(UTC+00:00)

Tiros 1 - Pass Details

Date: 16 February 2026
Orbit: 618 x 649 km, 48.4° (Epoch: 7 March)

Event Time Altitude Azimuth Distance (km) Brightness Sun altitude
Rises 12:29:32 0° 191° (S) 2,905 10.7 5.9°
Reaches altitude 10° 12:32:42 10° 169° (SSE) 1,995 10.2 6.4°
Maximum altitude 12:35:20 15° 133° (SE) 1,673 10.9 6.9°
Drops below altitude 10° 12:37:59 10° 98° (E) 1,992 11.5 7.3°
Sets 12:41:07 0° 75° (ENE) 2,897 11.4 7.9°
